Rasanegaar Mirror مخزن نرم‌افزاری رسانگار

فهرست فایل‌ها

Directory /ubuntu/pool/universe/k/kineticstools/

File Name  ↓ File Size  ↓ Date  ↓ 
--
46.6 KiB2025-Feb-14 12:00
20.7 MiB2025-Feb-14 12:00
12.6 KiB2025-Feb-14 12:00
10.9 KiB2025-Feb-14 12:00
2.7 KiB2025-Feb-14 12:00
12.6 KiB2024-Jan-20 04:05
46.1 KiB2024-Jan-20 04:05
20.7 MiB2024-Jan-20 04:05
10.2 KiB2024-Jan-19 23:41
2.7 KiB2024-Jan-19 23:41
20.8 MiB2022-Apr-30 05:03
20.7 MiB2022-Mar-17 12:20
12.6 KiB2022-Mar-17 12:20
46.7 KiB2022-Mar-17 12:20
10.1 KiB2022-Mar-16 23:04
2.7 KiB2022-Mar-16 23:04
20.8 MiB2021-Oct-26 09:19
96.8 MiB2017-Feb-21 06:28
11.9 KiB2017-Feb-21 06:28
48.0 KiB2017-Feb-21 06:28
7.4 KiB2017-Feb-21 06:23
2.1 KiB2017-Feb-21 06:23
108.7 MiB2017-Jan-16 08:48
12.0 KiB2016-Feb-02 21:02
96.6 MiB2016-Feb-02 21:02
2.4 KiB2016-Feb-02 21:00
103.2 MiB2016-Feb-02 21:00
4.5 KiB2016-Feb-02 21:00